EXS46TX EGCC-LGSR

Flight info

Callsign EXS46TX
Flight time 3h 29m
Altitude 37000
Route SANBA N859 HON L15 FINMA DCT CHT DCT ITVIP DCT KONAN DCT KOK UL607 FERDI DCT REMBA DCT ARCKY DCT LIRSU DCT KRH DCT KUNOD DCT GEDSO DCT VEKEN DCT SEHOR DCT DARZA DCT GLOMY DCT INLOT DCT PINDO UL607 ATV UL995 KEA UL607 NETIS M601 PEXAN
Aircraft B738/M-SDE2E3FGHIRWXY/LB1

Departure

Time 2026-04-20 13:26
Airport Manchester Airport (EGCC)

Arrival

Time 2026-04-20 16:55
Airport Santorini International Airport (LGSR)
Time Latitude Longitude Altitude Speed Heading
2026-04-20 12:48 53.36666 -2.28545 254 ft 0 kts 134°
2026-04-20 12:49 53.36669 -2.28550 254 ft 0 kts 135°
2026-04-20 12:53 53.36654 -2.28550 254 ft 0 kts 135°
2026-04-20 12:57 53.36819 -2.28627 254 ft 0 kts 315°
2026-04-20 13:15 53.36807 -2.28607 254 ft 4 kts 315°
2026-04-20 13:15 53.36792 -2.28583 254 ft 4 kts 290°
2026-04-20 13:16 53.36797 -2.28556 254 ft 4 kts 225°
2026-04-20 13:16 53.36814 -2.28529 254 ft 2 kts 224°
2026-04-20 13:16 53.36815 -2.28527 254 ft 0 kts 224°
2026-04-20 13:20 53.36804 -2.28544 254 ft 10 kts 224°
2026-04-20 13:20 53.36732 -2.28664 254 ft 15 kts 224°
2026-04-20 13:20 53.36651 -2.28765 254 ft 14 kts 203°
2026-04-20 13:20 53.36571 -2.28744 254 ft 12 kts 140°
2026-04-20 13:21 53.36510 -2.28640 254 ft 14 kts 135°
2026-04-20 13:21 53.36440 -2.28521 254 ft 15 kts 132°
2026-04-20 13:21 53.36386 -2.28357 254 ft 19 kts 127°
2026-04-20 13:21 53.36293 -2.28198 254 ft 15 kts 135°
2026-04-20 13:22 53.36221 -2.28076 254 ft 15 kts 135°
2026-04-20 13:22 53.36138 -2.27949 254 ft 19 kts 141°
2026-04-20 13:22 53.36031 -2.27811 254 ft 19 kts 143°
2026-04-20 13:22 53.35914 -2.27726 254 ft 18 kts 180°
2026-04-20 13:23 53.35791 -2.27693 250 ft 19 kts 140°
2026-04-20 13:23 53.35673 -2.27594 245 ft 19 kts 143°
2026-04-20 13:23 53.35582 -2.27472 244 ft 5 kts 141°
2026-04-20 13:23 53.35557 -2.27437 245 ft 5 kts 141°
2026-04-20 13:24 53.35506 -2.27370 247 ft 18 kts 141°
2026-04-20 13:24 53.35432 -2.27270 246 ft 21 kts 141°
2026-04-20 13:24 53.35290 -2.27202 240 ft 25 kts 191°
2026-04-20 13:24 53.35119 -2.27261 228 ft 22 kts 192°
2026-04-20 13:25 53.34985 -2.27369 224 ft 24 kts 230°
2026-04-20 13:25 53.34776 -2.27804 222 ft 82 kts 231°
2026-04-20 13:25 53.34272 -2.28851 226 ft 145 kts 231°
2026-04-20 13:25 53.33563 -2.30297 634 ft 166 kts 229°
2026-04-20 13:26 53.32821 -2.31821 1441 ft 173 kts 228°
2026-04-20 13:26 53.32113 -2.33520 2137 ft 189 kts 246°
2026-04-20 13:26 53.32087 -2.35880 2383 ft 219 kts 283°
2026-04-20 13:26 53.32462 -2.38472 2673 ft 241 kts 282°
2026-04-20 13:27 53.32695 -2.41291 3112 ft 256 kts 261°
2026-04-20 13:27 53.31923 -2.43966 3771 ft 260 kts 223°
2026-04-20 13:27 53.30408 -2.45550 4595 ft 260 kts 195°
2026-04-20 13:27 53.28635 -2.45722 4972 ft 256 kts 169°
2026-04-20 13:28 53.26899 -2.44983 5619 ft 261 kts 155°
2026-04-20 13:28 53.25288 -2.43551 6443 ft 264 kts 150°
2026-04-20 13:28 53.23664 -2.42043 7238 ft 269 kts 150°
2026-04-20 13:28 53.22009 -2.40545 8012 ft 273 kts 150°
2026-04-20 13:29 53.20333 -2.39044 8765 ft 278 kts 151°
2026-04-20 13:29 53.18608 -2.37519 9568 ft 282 kts 151°
2026-04-20 13:29 53.16856 -2.35984 10349 ft 287 kts 152°
2026-04-20 13:29 53.15057 -2.34413 11074 ft 291 kts 152°
2026-04-20 13:30 53.13272 -2.32855 11816 ft 295 kts 152°
2026-04-20 13:30 53.11418 -2.31238 12410 ft 307 kts 152°
2026-04-20 13:30 53.09446 -2.29519 12601 ft 331 kts 152°
2026-04-20 13:30 53.07329 -2.27676 12871 ft 350 kts 152°
2026-04-20 13:31 53.05158 -2.25786 13495 ft 358 kts 152°
2026-04-20 13:31 53.02935 -2.23855 14260 ft 362 kts 153°
2026-04-20 13:31 53.00686 -2.21905 14968 ft 367 kts 153°
2026-04-20 13:31 52.98401 -2.19924 15667 ft 372 kts 153°
2026-04-20 13:32 52.96080 -2.17913 16294 ft 379 kts 153°
2026-04-20 13:32 52.93734 -2.15884 17016 ft 383 kts 153°
2026-04-20 13:32 52.91347 -2.13820 17743 ft 387 kts 153°
2026-04-20 13:32 52.88938 -2.11740 18452 ft 392 kts 154°
2026-04-20 13:33 52.86494 -2.09632 19069 ft 397 kts 154°
2026-04-20 13:33 52.84056 -2.07532 19670 ft 402 kts 154°
2026-04-20 13:33 52.81554 -2.05379 20270 ft 406 kts 154°
2026-04-20 13:33 52.79027 -2.03208 20835 ft 411 kts 154°
2026-04-20 13:34 52.76473 -2.01016 21421 ft 416 kts 154°
2026-04-20 13:34 52.73901 -1.98810 22095 ft 417 kts 155°
2026-04-20 13:34 52.71322 -1.96603 22453 ft 426 kts 155°
2026-04-20 13:34 52.68647 -1.94318 22928 ft 432 kts 155°
2026-04-20 13:35 52.65962 -1.92025 23497 ft 436 kts 155°
2026-04-20 13:35 52.63285 -1.89743 23995 ft 440 kts 155°
2026-04-20 13:35 52.60548 -1.87413 24419 ft 444 kts 155°
2026-04-20 13:35 52.57695 -1.84987 24874 ft 448 kts 155°
2026-04-20 13:36 52.54992 -1.82693 25282 ft 451 kts 155°
2026-04-20 13:36 52.52225 -1.80346 25691 ft 455 kts 156°
2026-04-20 13:36 52.49392 -1.77947 25980 ft 462 kts 157°
2026-04-20 13:36 52.46497 -1.75503 26165 ft 471 kts 157°
2026-04-20 13:37 52.43585 -1.73043 26575 ft 474 kts 157°
2026-04-20 13:37 52.40638 -1.70557 27048 ft 475 kts 157°
2026-04-20 13:37 52.37700 -1.68037 27454 ft 480 kts 154°
2026-04-20 13:37 52.34906 -1.64952 27799 ft 488 kts 144°
2026-04-20 13:38 52.32384 -1.61109 28141 ft 495 kts 136°
2026-04-20 13:38 52.30043 -1.57044 28531 ft 498 kts 135°
2026-04-20 13:38 52.27671 -1.52869 28889 ft 502 kts 135°
2026-04-20 13:39 52.22823 -1.44439 29316 ft 514 kts 136°
2026-04-20 13:39 52.20349 -1.40207 29746 ft 515 kts 136°
2026-04-20 13:39 52.17880 -1.36014 30077 ft 518 kts 137°
2026-04-20 13:39 52.15363 -1.31759 30351 ft 521 kts 137°
2026-04-20 13:40 52.12841 -1.27504 30672 ft 522 kts 137°
2026-04-20 13:40 52.10321 -1.23252 31146 ft 519 kts 136°
2026-04-20 13:40 52.07844 -1.19076 31720 ft 513 kts 136°
2026-04-20 13:40 52.05363 -1.14899 32287 ft 508 kts 136°
2026-04-20 13:41 52.02906 -1.10774 32657 ft 507 kts 137°
2026-04-20 13:41 52.00423 -1.06685 32852 ft 510 kts 137°
2026-04-20 13:41 51.97864 -1.02699 33144 ft 510 kts 140°
2026-04-20 13:41 51.95229 -0.98853 33614 ft 506 kts 141°
2026-04-20 13:42 51.92584 -0.95092 34277 ft 499 kts 141°
2026-04-20 13:42 51.87450 -0.87816 35193 ft 490 kts 141°
2026-04-20 13:42 51.86610 -0.86620 35259 ft 491 kts 141°
2026-04-20 13:43 51.82544 -0.80805 35544 ft 494 kts 140°
2026-04-20 13:43 51.79966 -0.77105 35803 ft 493 kts 140°
2026-04-20 13:43 51.77428 -0.73465 36059 ft 493 kts 140°
2026-04-20 13:43 51.74858 -0.69784 36315 ft 493 kts 140°
2026-04-20 13:44 51.72293 -0.66119 36632 ft 491 kts 140°
2026-04-20 13:44 51.69729 -0.62460 36962 ft 490 kts 140°
2026-04-20 13:44 51.67176 -0.58826 37170 ft 491 kts 140°
2026-04-20 13:44 51.64707 -0.54983 37248 ft 495 kts 131°
2026-04-20 13:45 51.60949 -0.45619 37280 ft 501 kts 113°
2026-04-20 13:45 51.58672 -0.35111 37269 ft 499 kts 106°
2026-04-20 13:46 51.56598 -0.24650 37250 ft 497 kts 107°
2026-04-20 13:46 51.54456 -0.14151 37256 ft 496 kts 107°
2026-04-20 13:47 51.52256 -0.03639 37294 ft 496 kts 107°
2026-04-20 13:47 51.50034 0.06870 37298 ft 496 kts 108°
2026-04-20 13:48 51.47821 0.17288 37288 ft 496 kts 108°
2026-04-20 13:48 51.45570 0.27843 37297 ft 496 kts 108°
2026-04-20 13:49 51.43336 0.38267 37276 ft 496 kts 108°
2026-04-20 13:49 51.41077 0.48756 37275 ft 497 kts 108°
2026-04-20 13:50 51.38821 0.59174 37269 ft 497 kts 108°
2026-04-20 13:50 51.36551 0.69607 37267 ft 497 kts 108°
2026-04-20 13:51 51.34261 0.80080 37268 ft 497 kts 109°
2026-04-20 13:51 51.31964 0.90530 37267 ft 497 kts 109°
2026-04-20 13:52 51.29677 1.00890 37276 ft 497 kts 109°
2026-04-20 13:52 51.27564 1.11435 37271 ft 496 kts 104°
2026-04-20 13:53 51.25893 1.22085 37260 ft 496 kts 103°
2026-04-20 13:53 51.24241 1.32783 37274 ft 496 kts 103°
2026-04-20 13:54 51.22517 1.43489 37282 ft 496 kts 104°
2026-04-20 13:54 51.20775 1.54071 37261 ft 496 kts 104°
2026-04-20 13:55 51.19004 1.64757 37265 ft 496 kts 104°
2026-04-20 13:55 51.17244 1.75330 37257 ft 496 kts 104°
2026-04-20 13:56 51.15462 1.85984 37259 ft 495 kts 104°
2026-04-20 13:56 51.13680 1.96571 37269 ft 495 kts 104°
2026-04-20 13:57 51.12543 2.07310 37277 ft 493 kts 93°
2026-04-20 13:57 51.12054 2.18231 37261 ft 494 kts 92°
2026-04-20 13:58 51.11535 2.29105 37259 ft 494 kts 94°
2026-04-20 13:58 51.10942 2.39969 37267 ft 494 kts 94°
2026-04-20 13:59 51.10322 2.50867 37254 ft 494 kts 94°
2026-04-20 13:59 51.09703 2.61696 37257 ft 494 kts 94°
2026-04-20 14:00 51.08354 2.72418 37267 ft 494 kts 106°
2026-04-20 14:00 51.06371 2.82908 37265 ft 494 kts 107°
2026-04-20 14:01 51.04404 2.93321 37251 ft 494 kts 106°
2026-04-20 14:01 51.02466 3.03819 37240 ft 494 kts 106°
2026-04-20 14:02 51.00545 3.14271 37242 ft 494 kts 106°
2026-04-20 14:02 50.98601 3.24789 37241 ft 494 kts 106°
2026-04-20 14:03 50.96654 3.35245 37244 ft 494 kts 106°
2026-04-20 14:03 50.94696 3.45697 37231 ft 494 kts 107°
2026-04-20 14:04 50.92732 3.56131 37228 ft 494 kts 107°
2026-04-20 14:04 50.90768 3.66499 37229 ft 494 kts 107°
2026-04-20 14:05 50.88776 3.76923 37236 ft 494 kts 107°
2026-04-20 14:05 50.86775 3.87337 37222 ft 494 kts 107°
2026-04-20 14:06 50.84768 3.97731 37220 ft 493 kts 107°
2026-04-20 14:06 50.83033 4.06675 37221 ft 492 kts 107°
2026-04-20 14:07 50.81076 4.16716 37212 ft 492 kts 107°
2026-04-20 14:07 50.79053 4.27041 37204 ft 491 kts 107°
2026-04-20 14:08 50.77020 4.37361 37215 ft 492 kts 107°
2026-04-20 14:08 50.74971 4.47707 37214 ft 492 kts 107°
2026-04-20 14:09 50.72919 4.58015 37217 ft 493 kts 107°
2026-04-20 14:09 50.70849 4.68360 37226 ft 494 kts 108°
2026-04-20 14:10 50.68765 4.78720 37215 ft 495 kts 108°
2026-04-20 14:10 50.66683 4.89020 37200 ft 496 kts 108°
2026-04-20 14:11 50.64130 4.99159 37206 ft 496 kts 115°
2026-04-20 14:11 50.61173 5.08968 37204 ft 496 kts 116°
2026-04-20 14:12 50.58203 5.18791 37207 ft 496 kts 116°
2026-04-20 14:12 50.55297 5.28577 37191 ft 496 kts 115°
2026-04-20 14:13 50.52390 5.38420 37188 ft 496 kts 115°
2026-04-20 14:13 50.49971 5.46589 37186 ft 495 kts 116°
2026-04-20 14:14 50.46571 5.58006 37195 ft 495 kts 116°
2026-04-20 14:14 50.44117 5.66205 37192 ft 495 kts 116°
2026-04-20 14:15 50.41198 5.75926 37178 ft 495 kts 116°
2026-04-20 14:15 50.38251 5.85702 37194 ft 495 kts 116°
2026-04-20 14:16 50.35296 5.95465 37169 ft 496 kts 116°
2026-04-20 14:16 50.32332 6.05220 37171 ft 496 kts 116°
2026-04-20 14:17 50.29351 6.14969 37154 ft 496 kts 117°
2026-04-20 14:17 50.26073 6.24454 37165 ft 495 kts 120°
2026-04-20 14:18 50.22731 6.33784 37148 ft 495 kts 120°
2026-04-20 14:18 50.19414 6.43235 37155 ft 496 kts 121°
2026-04-20 14:19 50.15355 6.51858 37154 ft 493 kts 132°
2026-04-20 14:19 50.10874 6.59978 37115 ft 493 kts 133°
2026-04-20 14:20 50.06395 6.68092 37118 ft 494 kts 132°
2026-04-20 14:20 50.01949 6.76231 37118 ft 494 kts 132°
2026-04-20 14:21 49.97514 6.84374 37116 ft 494 kts 132°
2026-04-20 14:21 49.93070 6.92511 37124 ft 494 kts 133°
2026-04-20 14:22 49.88613 7.00642 37130 ft 495 kts 133°
2026-04-20 14:22 49.84138 7.08777 37128 ft 495 kts 133°
2026-04-20 14:23 49.79657 7.16898 37134 ft 496 kts 133°
2026-04-20 14:23 49.75161 7.25020 37139 ft 497 kts 133°
2026-04-20 14:24 49.70687 7.33078 37125 ft 497 kts 133°
2026-04-20 14:24 49.66176 7.41176 37134 ft 498 kts 133°
2026-04-20 14:25 49.61655 7.49268 37135 ft 498 kts 133°
2026-04-20 14:25 49.57115 7.57370 37122 ft 498 kts 133°
2026-04-20 14:26 49.52577 7.65440 37113 ft 499 kts 133°
2026-04-20 14:26 49.48030 7.73503 37096 ft 498 kts 133°
2026-04-20 14:27 49.43483 7.81543 37109 ft 498 kts 133°
2026-04-20 14:27 49.38928 7.89570 37114 ft 498 kts 133°
2026-04-20 14:28 49.34378 7.97565 37116 ft 497 kts 133°
2026-04-20 14:28 49.29825 8.05539 37127 ft 497 kts 133°
2026-04-20 14:29 49.25269 8.13495 37120 ft 496 kts 133°
2026-04-20 14:29 49.20737 8.21386 37097 ft 496 kts 133°
2026-04-20 14:30 49.16167 8.29320 37123 ft 497 kts 133°
2026-04-20 14:30 49.11589 8.37243 37107 ft 498 kts 133°
2026-04-20 14:31 49.06988 8.45183 37105 ft 499 kts 133°
2026-04-20 14:31 49.02395 8.53086 37104 ft 499 kts 133°
2026-04-20 14:32 48.97762 8.60988 37076 ft 500 kts 134°
2026-04-20 14:32 48.92991 8.68688 37093 ft 500 kts 135°
2026-04-20 14:33 48.88172 8.76333 37093 ft 500 kts 135°
2026-04-20 14:33 48.83390 8.83946 37081 ft 500 kts 135°
2026-04-20 14:34 48.78594 8.91598 37079 ft 500 kts 135°
2026-04-20 14:34 48.73803 8.99230 37084 ft 499 kts 135°
2026-04-20 14:35 48.69007 9.06844 37069 ft 498 kts 135°
2026-04-20 14:35 48.64220 9.14421 37073 ft 497 kts 135°
2026-04-20 14:36 48.59434 9.21972 37079 ft 497 kts 135°
2026-04-20 14:36 48.54651 9.29497 37076 ft 496 kts 135°
2026-04-20 14:37 48.49863 9.37008 37073 ft 496 kts 135°
2026-04-20 14:37 48.45102 9.44455 37074 ft 496 kts 136°
2026-04-20 14:38 48.40304 9.51940 37078 ft 496 kts 136°
2026-04-20 14:38 48.35511 9.59398 37056 ft 496 kts 136°
2026-04-20 14:39 48.30930 9.67155 37061 ft 496 kts 130°
2026-04-20 14:39 48.26617 9.75255 37054 ft 497 kts 130°
2026-04-20 14:40 48.22305 9.83388 37022 ft 497 kts 130°
2026-04-20 14:40 48.17998 9.91403 37058 ft 497 kts 130°
2026-04-20 14:41 48.13637 9.99445 37055 ft 498 kts 130°
2026-04-20 14:41 48.09249 10.07500 37055 ft 499 kts 130°
2026-04-20 14:42 48.04855 10.15546 37053 ft 500 kts 130°
2026-04-20 14:42 48.00449 10.23593 37049 ft 501 kts 130°
2026-04-20 14:43 47.96031 10.31639 37050 ft 501 kts 130°
2026-04-20 14:43 47.91614 10.39660 37057 ft 500 kts 130°
2026-04-20 14:44 47.87198 10.47655 37055 ft 499 kts 130°
2026-04-20 14:44 47.82780 10.55629 37053 ft 497 kts 131°
2026-04-20 14:45 47.78378 10.63551 37071 ft 496 kts 131°
2026-04-20 14:45 47.73978 10.71447 37066 ft 495 kts 131°
2026-04-20 14:46 47.69579 10.79319 37057 ft 493 kts 131°
2026-04-20 14:46 47.65226 10.87084 37055 ft 492 kts 131°
2026-04-20 14:47 47.60838 10.94888 37055 ft 491 kts 131°
2026-04-20 14:48 47.54268 11.06535 37053 ft 491 kts 131°
2026-04-20 14:48 47.49878 11.14288 37048 ft 491 kts 131°
2026-04-20 14:49 47.45506 11.21989 37017 ft 492 kts 131°
2026-04-20 14:49 47.41115 11.29699 37015 ft 492 kts 131°
2026-04-20 14:50 47.36678 11.37470 36991 ft 492 kts 132°
2026-04-20 14:50 47.32269 11.45169 37005 ft 492 kts 132°
2026-04-20 14:51 47.27837 11.52886 36989 ft 494 kts 132°
2026-04-20 14:51 47.23412 11.60571 37028 ft 495 kts 132°
2026-04-20 14:52 47.18941 11.68314 36968 ft 497 kts 132°
2026-04-20 14:52 47.14477 11.76026 37019 ft 494 kts 132°
2026-04-20 14:53 47.10012 11.83705 37038 ft 492 kts 132°
2026-04-20 14:53 47.06238 11.92073 36997 ft 495 kts 116°
2026-04-20 14:54 47.03237 12.01227 36974 ft 497 kts 115°
2026-04-20 14:54 47.00267 12.10339 37011 ft 497 kts 116°
2026-04-20 14:55 46.97218 12.19491 36959 ft 499 kts 116°
2026-04-20 14:55 46.94191 12.28458 36947 ft 500 kts 116°
2026-04-20 14:56 46.91098 12.37578 36965 ft 497 kts 116°
2026-04-20 14:56 46.88018 12.46631 36966 ft 498 kts 117°
2026-04-20 14:57 46.84928 12.55688 36924 ft 500 kts 116°
2026-04-20 14:57 46.82252 12.63509 36917 ft 499 kts 116°
2026-04-20 14:58 46.79145 12.72559 36920 ft 497 kts 116°
2026-04-20 14:58 46.76043 12.81564 36953 ft 495 kts 117°
2026-04-20 14:59 46.69797 12.99608 36955 ft 492 kts 117°
2026-04-20 15:00 46.66721 13.08445 36951 ft 491 kts 117°
2026-04-20 15:00 46.63607 13.17366 36964 ft 495 kts 117°
2026-04-20 15:01 46.60457 13.26360 36950 ft 499 kts 117°
2026-04-20 15:01 46.56909 13.36227 36950 ft 502 kts 122°
2026-04-20 15:02 46.52553 13.44087 36986 ft 497 kts 136°
2026-04-20 15:02 46.47738 13.51220 36967 ft 494 kts 136°
2026-04-20 15:03 46.43713 13.57176 36952 ft 495 kts 136°
2026-04-20 15:03 46.38920 13.64360 36964 ft 496 kts 136°
2026-04-20 15:04 46.34143 13.71562 36924 ft 498 kts 135°
2026-04-20 15:04 46.29315 13.78823 36943 ft 496 kts 136°
2026-04-20 15:05 46.24561 13.85949 36957 ft 494 kts 136°
2026-04-20 15:05 46.19770 13.93109 36959 ft 494 kts 136°
2026-04-20 15:06 46.14983 14.00242 36946 ft 493 kts 136°
2026-04-20 15:06 46.10231 14.07307 36949 ft 492 kts 136°
2026-04-20 15:07 46.05471 14.14365 36947 ft 490 kts 136°
2026-04-20 15:07 46.00711 14.21403 36959 ft 489 kts 136°
2026-04-20 15:08 45.95962 14.28409 36956 ft 489 kts 136°
2026-04-20 15:08 45.91274 14.35433 36981 ft 489 kts 135°
2026-04-20 15:09 45.86688 14.42701 36972 ft 491 kts 134°
2026-04-20 15:09 45.82116 14.49972 36980 ft 493 kts 134°
2026-04-20 15:10 45.77478 14.57267 36966 ft 494 kts 134°
2026-04-20 15:10 45.72806 14.64566 36974 ft 496 kts 134°
2026-04-20 15:11 45.68158 14.71806 36979 ft 497 kts 134°
2026-04-20 15:11 45.63476 14.79083 36985 ft 497 kts 134°
2026-04-20 15:12 45.58802 14.86330 36953 ft 497 kts 135°
2026-04-20 15:12 45.54112 14.93583 36985 ft 497 kts 135°
2026-04-20 15:13 45.49417 15.00826 36988 ft 496 kts 135°
2026-04-20 15:13 45.44624 15.07886 36987 ft 494 kts 137°
2026-04-20 15:14 45.39800 15.14731 37007 ft 492 kts 137°
2026-04-20 15:14 45.34947 15.21619 36990 ft 491 kts 137°
2026-04-20 15:15 45.30121 15.28500 37002 ft 489 kts 137°
2026-04-20 15:15 45.25321 15.35348 36998 ft 489 kts 137°
2026-04-20 15:16 45.20517 15.42186 36991 ft 490 kts 137°
2026-04-20 15:16 45.15729 15.48983 36979 ft 490 kts 137°
2026-04-20 15:17 45.10902 15.55816 36990 ft 490 kts 137°
2026-04-20 15:17 45.06082 15.62621 36982 ft 490 kts 137°
2026-04-20 15:18 45.01255 15.69420 36978 ft 491 kts 137°
2026-04-20 15:18 44.96388 15.76257 36986 ft 491 kts 137°
2026-04-20 15:19 44.91565 15.83015 36993 ft 491 kts 137°
2026-04-20 15:19 44.86719 15.89789 36961 ft 492 kts 137°
2026-04-20 15:20 44.81858 15.96567 36975 ft 491 kts 137°
2026-04-20 15:20 44.76982 16.03348 36969 ft 492 kts 137°
2026-04-20 15:21 44.72103 16.10117 36978 ft 492 kts 137°
2026-04-20 15:21 44.67214 16.16883 36967 ft 493 kts 137°
2026-04-20 15:22 44.62332 16.23623 36972 ft 492 kts 137°
2026-04-20 15:22 44.57455 16.30338 36964 ft 492 kts 138°
2026-04-20 15:23 44.52565 16.37054 36967 ft 491 kts 138°
2026-04-20 15:23 44.47679 16.43750 36968 ft 491 kts 138°
2026-04-20 15:24 44.42801 16.50416 36972 ft 491 kts 138°
2026-04-20 15:24 44.37899 16.57099 36960 ft 490 kts 138°
2026-04-20 15:25 44.33048 16.63697 36961 ft 489 kts 138°
2026-04-20 15:25 44.28147 16.70346 36961 ft 488 kts 138°
2026-04-20 15:26 44.23276 16.76939 36967 ft 488 kts 138°
2026-04-20 15:26 44.18396 16.83527 36972 ft 488 kts 138°
2026-04-20 15:27 44.13533 16.90078 36954 ft 489 kts 138°
2026-04-20 15:27 44.08618 16.96681 36960 ft 489 kts 138°
2026-04-20 15:28 44.03734 17.03228 36968 ft 489 kts 138°
2026-04-20 15:28 43.98830 17.09784 36973 ft 490 kts 138°
2026-04-20 15:29 43.93908 17.16350 36979 ft 490 kts 138°
2026-04-20 15:29 43.89010 17.22868 36976 ft 490 kts 138°
2026-04-20 15:30 43.84076 17.29418 36953 ft 490 kts 139°
2026-04-20 15:30 43.79167 17.35919 36964 ft 490 kts 139°
2026-04-20 15:31 43.74223 17.42451 36962 ft 490 kts 139°
2026-04-20 15:31 43.69318 17.48917 36966 ft 490 kts 139°
2026-04-20 15:32 43.64360 17.55437 36936 ft 491 kts 139°
2026-04-20 15:32 43.59439 17.61895 36933 ft 489 kts 139°
2026-04-20 15:33 43.54483 17.68297 36942 ft 486 kts 141°
2026-04-20 15:33 43.49352 17.74343 36941 ft 483 kts 143°
2026-04-20 15:34 43.44200 17.80248 36946 ft 483 kts 142°
2026-04-20 15:34 43.39064 17.86168 36953 ft 482 kts 142°
2026-04-20 15:35 43.33906 17.92148 36940 ft 483 kts 142°
2026-04-20 15:35 43.28765 17.98112 36938 ft 483 kts 142°
2026-04-20 15:36 43.23626 18.04058 36947 ft 484 kts 142°
2026-04-20 15:36 43.18483 18.09994 36942 ft 484 kts 142°
2026-04-20 15:37 43.13309 18.15951 36939 ft 484 kts 142°
2026-04-20 15:37 43.08174 18.21850 36955 ft 484 kts 142°
2026-04-20 15:38 43.03026 18.27750 36956 ft 484 kts 142°
2026-04-20 15:38 42.97835 18.33686 36961 ft 484 kts 142°
2026-04-20 15:39 42.92711 18.39531 36968 ft 483 kts 142°
2026-04-20 15:39 42.87524 18.45435 36961 ft 483 kts 142°
2026-04-20 15:40 42.82376 18.51283 36971 ft 483 kts 142°
2026-04-20 15:40 42.77194 18.57155 36975 ft 483 kts 142°
2026-04-20 15:41 42.72027 18.62997 36977 ft 483 kts 142°
2026-04-20 15:41 42.66883 18.68800 36971 ft 483 kts 142°
2026-04-20 15:42 42.61707 18.74626 36984 ft 482 kts 143°
2026-04-20 15:42 42.56552 18.80415 36988 ft 482 kts 142°
2026-04-20 15:43 42.51377 18.86215 36989 ft 482 kts 143°
2026-04-20 15:43 42.46201 18.92002 36991 ft 482 kts 143°
2026-04-20 15:44 42.41017 18.97786 36988 ft 481 kts 143°
2026-04-20 15:44 42.35863 19.03524 36987 ft 481 kts 143°
2026-04-20 15:45 42.30680 19.09280 36995 ft 481 kts 143°
2026-04-20 15:45 42.25512 19.15008 36998 ft 482 kts 143°
2026-04-20 15:46 42.20300 19.20773 36994 ft 482 kts 143°
2026-04-20 15:46 42.15132 19.26476 36994 ft 483 kts 143°
2026-04-20 15:47 42.09928 19.32207 36997 ft 483 kts 143°
2026-04-20 15:47 42.04741 19.37907 36993 ft 483 kts 143°
2026-04-20 15:48 42.00363 19.42710 37002 ft 483 kts 143°
2026-04-20 15:48 41.95109 19.48377 37007 ft 484 kts 144°
2026-04-20 15:49 41.89789 19.53837 37002 ft 484 kts 145°
2026-04-20 15:49 41.84394 19.59326 37011 ft 484 kts 145°
2026-04-20 15:50 41.79062 19.64772 37010 ft 485 kts 144°
2026-04-20 15:50 41.73668 19.70291 37018 ft 485 kts 144°
2026-04-20 15:51 41.68295 19.75785 37010 ft 485 kts 144°
2026-04-20 15:51 41.62955 19.81230 37034 ft 484 kts 144°
2026-04-20 15:52 41.57588 19.86689 37018 ft 484 kts 144°
2026-04-20 15:52 41.52215 19.92143 37023 ft 483 kts 144°
2026-04-20 15:53 41.44202 20.00256 36990 ft 483 kts 144°
2026-04-20 15:53 41.38833 20.05676 37011 ft 484 kts 144°
2026-04-20 15:54 41.33481 20.11069 37006 ft 483 kts 144°
2026-04-20 15:54 41.28099 20.16480 37011 ft 483 kts 144°
2026-04-20 15:55 41.22752 20.21845 37028 ft 483 kts 144°
2026-04-20 15:55 41.17382 20.27222 37003 ft 482 kts 144°
2026-04-20 15:56 41.12033 20.32566 37027 ft 483 kts 144°
2026-04-20 15:56 41.06640 20.37942 37007 ft 484 kts 144°
2026-04-20 15:57 41.01259 20.43297 37022 ft 484 kts 144°
2026-04-20 15:57 40.95861 20.48655 37018 ft 485 kts 144°
2026-04-20 15:58 40.90471 20.53995 37026 ft 486 kts 144°
2026-04-20 15:58 40.85045 20.59360 37011 ft 487 kts 144°
2026-04-20 15:59 40.79629 20.64704 36998 ft 487 kts 144°
2026-04-20 15:59 40.74200 20.70049 37016 ft 487 kts 144°
2026-04-20 16:00 40.68745 20.75410 36994 ft 487 kts 144°
2026-04-20 16:00 40.63351 20.80699 37006 ft 485 kts 144°
2026-04-20 16:01 40.57914 20.86020 36993 ft 484 kts 144°
2026-04-20 16:01 40.52526 20.91284 36986 ft 482 kts 144°
2026-04-20 16:02 40.47166 20.96587 36997 ft 485 kts 141°
2026-04-20 16:02 40.42044 21.02424 36972 ft 489 kts 139°
2026-04-20 16:03 40.36996 21.08350 36975 ft 487 kts 139°
2026-04-20 16:03 40.31904 21.14262 36983 ft 487 kts 139°
2026-04-20 16:04 40.26811 21.20114 36978 ft 485 kts 139°
2026-04-20 16:04 40.21758 21.25905 36971 ft 484 kts 139°
2026-04-20 16:05 40.16670 21.31717 36974 ft 483 kts 139°
2026-04-20 16:05 40.11631 21.37466 36973 ft 482 kts 139°
2026-04-20 16:06 40.06555 21.43242 36988 ft 486 kts 139°
2026-04-20 16:06 40.01423 21.49070 37058 ft 489 kts 139°
2026-04-20 16:07 39.98846 21.52001 37341 ft 489 kts 139°
2026-04-20 16:07 39.96287 21.54904 37689 ft 488 kts 140°
2026-04-20 16:07 39.93750 21.57773 38014 ft 486 kts 140°
2026-04-20 16:07 39.91198 21.60655 38307 ft 485 kts 140°
2026-04-20 16:08 39.88636 21.63543 38565 ft 486 kts 140°
2026-04-20 16:08 39.86058 21.66448 38762 ft 486 kts 140°
2026-04-20 16:08 39.83533 21.69291 38957 ft 486 kts 140°
2026-04-20 16:08 39.80954 21.72192 38958 ft 490 kts 140°
2026-04-20 16:09 39.75749 21.78041 38963 ft 493 kts 140°
2026-04-20 16:09 39.70596 21.83823 38947 ft 490 kts 140°
2026-04-20 16:10 39.65437 21.89598 38823 ft 484 kts 140°
2026-04-20 16:10 39.62894 21.92440 38210 ft 483 kts 140°
2026-04-20 16:10 39.60327 21.95306 37420 ft 486 kts 140°
2026-04-20 16:11 39.57801 21.98123 37191 ft 482 kts 140°
2026-04-20 16:11 39.55224 22.00993 37078 ft 489 kts 140°
2026-04-20 16:11 39.49981 22.06825 36941 ft 502 kts 140°
2026-04-20 16:12 39.44692 22.12696 36917 ft 501 kts 140°
2026-04-20 16:12 39.39436 22.18521 36920 ft 490 kts 140°
2026-04-20 16:13 39.34272 22.24232 36929 ft 487 kts 140°
2026-04-20 16:13 39.29125 22.29910 36939 ft 488 kts 140°
2026-04-20 16:14 39.23951 22.35607 36942 ft 488 kts 140°
2026-04-20 16:14 39.18794 22.41274 36939 ft 489 kts 140°
2026-04-20 16:15 39.13597 22.46974 36950 ft 489 kts 140°
2026-04-20 16:15 39.08397 22.52666 36919 ft 489 kts 140°
2026-04-20 16:16 39.03230 22.58311 36937 ft 489 kts 140°
2026-04-20 16:16 38.98026 22.63984 36939 ft 488 kts 140°
2026-04-20 16:17 38.92831 22.69637 36943 ft 488 kts 140°
2026-04-20 16:17 38.87661 22.75250 36943 ft 487 kts 140°
2026-04-20 16:18 38.82501 22.80842 36944 ft 486 kts 141°
2026-04-20 16:18 38.77320 22.86446 36944 ft 486 kts 141°
2026-04-20 16:19 38.72144 22.92033 36953 ft 486 kts 141°
2026-04-20 16:19 38.66987 22.97590 36945 ft 486 kts 141°
2026-04-20 16:20 38.61815 23.03151 36950 ft 486 kts 141°
2026-04-20 16:20 38.56618 23.08729 36946 ft 486 kts 141°
2026-04-20 16:21 38.51438 23.14277 36951 ft 487 kts 141°
2026-04-20 16:21 38.46254 23.19819 36947 ft 487 kts 141°
2026-04-20 16:22 38.41037 23.25386 36947 ft 488 kts 141°
2026-04-20 16:22 38.35849 23.30910 36945 ft 488 kts 141°
2026-04-20 16:23 38.30606 23.36484 36962 ft 489 kts 141°
2026-04-20 16:23 38.25401 23.42006 36956 ft 489 kts 141°
2026-04-20 16:24 38.20170 23.47547 36970 ft 489 kts 142°
2026-04-20 16:24 38.15791 23.52174 36705 ft 492 kts 142°
2026-04-20 16:25 38.13149 23.54958 36225 ft 490 kts 142°
2026-04-20 16:25 38.10534 23.57711 35890 ft 481 kts 142°
2026-04-20 16:25 38.08011 23.60366 35643 ft 473 kts 142°
2026-04-20 16:25 38.05460 23.63048 35405 ft 476 kts 142°
2026-04-20 16:26 38.02892 23.65743 35173 ft 480 kts 142°
2026-04-20 16:26 38.00329 23.68432 34858 ft 475 kts 142°
2026-04-20 16:26 37.97786 23.71099 34490 ft 470 kts 142°
2026-04-20 16:26 37.95289 23.73716 34112 ft 466 kts 142°
2026-04-20 16:27 37.92786 23.76337 33701 ft 463 kts 142°
2026-04-20 16:27 37.90322 23.78913 33253 ft 460 kts 141°
2026-04-20 16:27 37.87768 23.81869 32747 ft 458 kts 133°
2026-04-20 16:27 37.85687 23.84907 32288 ft 456 kts 130°
2026-04-20 16:28 37.83673 23.87998 31887 ft 452 kts 129°
2026-04-20 16:28 37.81673 23.91092 31495 ft 449 kts 129°
2026-04-20 16:28 37.79712 23.94103 31113 ft 445 kts 129°
2026-04-20 16:28 37.77736 23.97102 30746 ft 441 kts 130°
2026-04-20 16:29 37.75764 24.00068 30390 ft 438 kts 130°
2026-04-20 16:29 37.73802 24.03003 30015 ft 435 kts 130°
2026-04-20 16:29 37.71843 24.05923 29596 ft 432 kts 130°
2026-04-20 16:29 37.69930 24.08771 29196 ft 428 kts 130°
2026-04-20 16:30 37.67958 24.11705 28832 ft 423 kts 130°
2026-04-20 16:30 37.66118 24.14441 28449 ft 419 kts 130°
2026-04-20 16:30 37.64006 24.17580 28046 ft 415 kts 130°
2026-04-20 16:30 37.62139 24.20353 27685 ft 411 kts 130°
2026-04-20 16:31 37.60310 24.23068 27328 ft 408 kts 130°
2026-04-20 16:31 37.58469 24.25798 26962 ft 404 kts 130°
2026-04-20 16:31 37.56644 24.28469 26606 ft 401 kts 134°
2026-04-20 16:31 37.54617 24.30799 26315 ft 395 kts 146°
2026-04-20 16:32 37.52338 24.32679 26091 ft 387 kts 150°
2026-04-20 16:32 37.50047 24.34457 25748 ft 386 kts 151°
2026-04-20 16:32 37.47745 24.36228 25420 ft 387 kts 151°
2026-04-20 16:32 37.45448 24.37998 25095 ft 397 kts 150°
2026-04-20 16:33 37.43047 24.39857 24724 ft 401 kts 150°
2026-04-20 16:33 37.40703 24.41684 24342 ft 399 kts 151°
2026-04-20 16:33 37.38349 24.43524 23986 ft 397 kts 150°
2026-04-20 16:33 37.35998 24.45364 23623 ft 394 kts 150°
2026-04-20 16:34 37.33680 24.47178 23223 ft 391 kts 150°
2026-04-20 16:34 37.31371 24.48984 22829 ft 388 kts 150°
2026-04-20 16:34 37.29117 24.50746 22457 ft 384 kts 150°
2026-04-20 16:34 37.26857 24.52512 22102 ft 381 kts 150°
2026-04-20 16:35 37.24605 24.54270 21749 ft 377 kts 150°
2026-04-20 16:35 37.22387 24.55999 21405 ft 374 kts 150°
2026-04-20 16:35 37.20182 24.57718 21041 ft 371 kts 150°
2026-04-20 16:35 37.18002 24.59414 20498 ft 374 kts 150°
2026-04-20 16:36 37.15778 24.61144 20057 ft 374 kts 150°
2026-04-20 16:36 37.13568 24.62863 19706 ft 371 kts 150°
2026-04-20 16:36 37.11374 24.64568 19359 ft 368 kts 150°
2026-04-20 16:36 37.09224 24.66238 19006 ft 366 kts 150°
2026-04-20 16:37 37.07062 24.67916 18650 ft 364 kts 150°
2026-04-20 16:37 37.04926 24.69572 18306 ft 362 kts 150°
2026-04-20 16:37 37.02789 24.71229 17919 ft 359 kts 150°
2026-04-20 16:37 37.00667 24.72873 17538 ft 357 kts 150°
2026-04-20 16:38 36.98558 24.74506 17166 ft 355 kts 150°
2026-04-20 16:38 36.96465 24.76126 16795 ft 352 kts 149°
2026-04-20 16:38 36.94387 24.77732 16428 ft 350 kts 149°
2026-04-20 16:38 36.92337 24.79315 16069 ft 348 kts 149°
2026-04-20 16:39 36.90288 24.80902 15714 ft 346 kts 149°
2026-04-20 16:39 36.88237 24.82496 15368 ft 344 kts 149°
2026-04-20 16:39 36.86893 24.83540 15121 ft 343 kts 149°
2026-04-20 16:39 36.84868 24.85113 14762 ft 341 kts 149°
2026-04-20 16:40 36.82206 24.87180 14323 ft 338 kts 149°
2026-04-20 16:40 36.80876 24.88211 14105 ft 337 kts 149°
2026-04-20 16:40 36.78893 24.89749 13766 ft 335 kts 149°
2026-04-20 16:40 36.76913 24.91283 13452 ft 331 kts 149°
2026-04-20 16:41 36.74977 24.92783 13353 ft 321 kts 149°
2026-04-20 16:41 36.73122 24.94218 13214 ft 312 kts 149°
2026-04-20 16:41 36.71356 24.95775 12932 ft 310 kts 134°
2026-04-20 16:41 36.70219 24.98026 12598 ft 308 kts 109°
2026-04-20 16:42 36.69787 25.00585 12323 ft 303 kts 96°
2026-04-20 16:42 36.69526 25.03190 12011 ft 301 kts 95°
2026-04-20 16:42 36.69276 25.05805 11694 ft 300 kts 95°
2026-04-20 16:42 36.69020 25.08379 11409 ft 299 kts 96°
2026-04-20 16:43 36.68756 25.10918 11152 ft 297 kts 96°
2026-04-20 16:43 36.68485 25.13464 10819 ft 296 kts 96°
2026-04-20 16:43 36.68208 25.16007 10529 ft 294 kts 98°
2026-04-20 16:43 36.67476 25.18351 10216 ft 295 kts 125°
2026-04-20 16:44 36.66077 25.20186 9976 ft 291 kts 139°
2026-04-20 16:44 36.64552 25.21810 9785 ft 285 kts 141°
2026-04-20 16:44 36.63019 25.23405 9378 ft 288 kts 141°
2026-04-20 16:44 36.61481 25.25007 9044 ft 288 kts 141°
2026-04-20 16:45 36.59950 25.26609 8756 ft 287 kts 140°
2026-04-20 16:45 36.58424 25.28215 8460 ft 285 kts 140°
2026-04-20 16:45 36.56912 25.29812 8166 ft 284 kts 140°
2026-04-20 16:45 36.55399 25.31412 7872 ft 283 kts 140°
2026-04-20 16:46 36.53889 25.33011 7581 ft 281 kts 140°
2026-04-20 16:46 36.52419 25.34570 7325 ft 279 kts 140°
2026-04-20 16:46 36.50940 25.36138 7034 ft 278 kts 140°
2026-04-20 16:46 36.49462 25.37704 6751 ft 278 kts 140°
2026-04-20 16:47 36.48009 25.39243 6468 ft 276 kts 140°
2026-04-20 16:47 36.46545 25.40794 6199 ft 276 kts 140°
2026-04-20 16:47 36.45081 25.42345 5959 ft 273 kts 140°
2026-04-20 16:47 36.43657 25.43855 5880 ft 262 kts 141°
2026-04-20 16:48 36.42290 25.45298 5823 ft 251 kts 140°
2026-04-20 16:48 36.41014 25.46646 5744 ft 236 kts 141°
2026-04-20 16:48 36.39792 25.47944 5524 ft 227 kts 139°
2026-04-20 16:48 36.38632 25.49270 5145 ft 225 kts 138°
2026-04-20 16:49 36.37488 25.50583 4685 ft 223 kts 138°
2026-04-20 16:49 36.36438 25.52019 4251 ft 221 kts 130°
2026-04-20 16:49 36.35505 25.53431 4131 ft 206 kts 130°
2026-04-20 16:49 36.34634 25.54764 3990 ft 192 kts 130°
2026-04-20 16:50 36.33819 25.56015 3892 ft 178 kts 130°
2026-04-20 16:50 36.33059 25.57179 3703 ft 172 kts 130°
2026-04-20 16:50 36.32306 25.58335 3455 ft 169 kts 130°
2026-04-20 16:50 36.31561 25.59480 3303 ft 181 kts 130°
2026-04-20 16:51 36.30680 25.60658 3185 ft 198 kts 150°
2026-04-20 16:51 36.29393 25.60884 3052 ft 185 kts 202°
2026-04-20 16:51 36.28551 25.59916 2990 ft 158 kts 257°
2026-04-20 16:51 36.28412 25.58628 3038 ft 147 kts 259°
2026-04-20 16:52 36.28564 25.57419 2921 ft 148 kts 298°
2026-04-20 16:52 36.29186 25.56388 2777 ft 153 kts 309°
2026-04-20 16:52 36.29900 25.55384 2597 ft 157 kts 310°
2026-04-20 16:52 36.30631 25.54419 2463 ft 146 kts 308°
2026-04-20 16:53 36.31273 25.53429 2188 ft 147 kts 305°
2026-04-20 16:53 36.31895 25.52440 1940 ft 146 kts 306°
2026-04-20 16:53 36.32594 25.51523 1680 ft 145 kts 317°
2026-04-20 16:53 36.33482 25.50919 1387 ft 149 kts 334°
2026-04-20 16:54 36.34473 25.50540 1122 ft 147 kts 337°
2026-04-20 16:54 36.35416 25.50110 892 ft 143 kts 335°
2026-04-20 16:54 36.36351 25.49665 626 ft 143 kts 332°
2026-04-20 16:54 36.37286 25.49192 514 ft 152 kts 331°
2026-04-20 16:55 36.38280 25.48696 253 ft 154 kts 333°
2026-04-20 16:55 36.39267 25.48229 71 ft 149 kts 334°
2026-04-20 16:55 36.40102 25.47829 85 ft 100 kts 340°
2026-04-20 16:55 36.40554 25.47614 89 ft 39 kts 339°
2026-04-20 16:56 36.40757 25.47518 92 ft 21 kts 339°
2026-04-20 16:56 36.40846 25.47436 92 ft 13 kts 255°
2026-04-20 16:56 36.40806 25.47342 93 ft 13 kts 201°
2026-04-20 16:56 36.40723 25.47366 92 ft 12 kts 159°
2026-04-20 16:57 36.40644 25.47404 90 ft 12 kts 159°
2026-04-20 16:57 36.40567 25.47440 91 ft 12 kts 158°
2026-04-20 16:57 36.40492 25.47476 91 ft 11 kts 159°
2026-04-20 16:57 36.40423 25.47475 91 ft 11 kts 240°
2026-04-20 16:58 36.40417 25.47456 89 ft 8 kts 251°
2026-04-20 16:58 36.40415 25.47445 89 ft 0 kts 256°
2026-04-20 16:58 36.40415 25.47431 89 ft 6 kts 276°
2026-04-20 16:58 36.40429 25.47376 89 ft 8 kts 257°
2026-04-20 16:59 36.40421 25.47347 92 ft 0 kts 249°
2026-04-20 16:59 36.40420 25.47343 92 ft 0 kts 249°